Location: Newark
(0.5300°S, 127.4800°E)
Time: 00:57:41
(UTC+00:00)

Vanguard 3 - Pass Details

Date: 19 September 2019
Orbit: 508 x 3262 km, 33.3° (Epoch: 15 October)

Event Time Altitude Azimuth Distance (km) Brightness Sun altitude
Rises 20:03:48 0° 235° (SW) 3,810 - -20.0°
Reaches altitude 10° 20:05:57 10° 235° (SW) 3,106 - -19.5°
Exits shadow 20:07:42 21° 235° (SW) 2,585 9.2 -19.0°
Maximum altitude 20:13:59 88° 322° (NW) 1,741 8.7 -17.5°
Drops below altitude 10° 20:28:50 10° 53° (NE) 5,408 12.2 -13.8°
Sets 20:33:52 0° 54° (NE) 6,751 12.8 -12.5°
